Location: Observatory
(52.1446°N, 0.4624°W)
Time: 17:12:29
(UTC+00:00)

ISS - Pass Details

Date: 23 November 2023
Orbit: 415 x 417 km, 51.6° (Epoch: 06 December)

Event Time Altitude Azimuth Distance (km) Brightness Sun altitude
Rises 18:49:50 0° 266° (W) 2,362 1.4 -25.3°
Reaches altitude 10° 18:51:56 10° 266° (W) 1,499 0.1 -25.7°
Enters shadow 18:53:43 29° 264° (W) 800 -1.8 -25.9°
